This demonstration page uses our WeatherBlox Daily Observations layout. Learn more.

Left ArrowRight Arrow

47.50024, -111.30081

Hourly Observations for April 23, 2016

Temp ( °F °C ) Dew Point ( °F °C ) Humidity (%) Winds ( mph kmh ) Pressure ( in mb ) Visibility ( mi km ) Precip ( " mm )
12:53 am 00:53 Clear 49 9.4 37 2.8 64 64 SSW 3 6 29.72 1007 10 16 0.00 0.00
1:53 am 01:53 Clear 47 8.3 36 2.2 66 66 W 5 7 29.73 1007 10 16 0.00 0.00
2:53 am 02:53 Mostly Clear 41 5 35 1.7 79 79 WSW 7 11 29.74 1007 10 16 0.00 0.00
3:53 am 03:53 Cloudy 49 9.4 37 2.8 64 64 Calm 29.73 1007 10 16 0.00 0.00
4:53 am 04:53 Partly Cloudy 46 7.8 36 2.2 68 68 SW 6 9 29.74 1007 10 16 0.00 0.00
5:53 am 05:53 Clear 42 5.6 34 1.1 73 73 W 7 11 29.74 1007 10 16 0.00 0.00
6:53 am 06:53 Mostly Sunny 42 5.6 36 2.2 79 79 SW 9 15 29.76 1008 10 16 0.00 0.00
7:53 am 07:53 Sunny 48 8.9 38 3.3 68 68 WSW 3 6 29.76 1008 10 16 0.00 0.00
8:53 am 08:53 Mostly Cloudy 49 9.4 37 2.8 64 64 WNW 6 9 29.77 1008 10 16 0.00 0.00
9:53 am 09:53 Sunny 50 10 37 2.8 61 61 NNW 10 17 29.77 1008 10 16 0.00 0.00
10:53 am 10:53 Partly Cloudy 50 10 36 2.2 59 59 NW 7 11 29.78 1009 10 16 0.00 0.00
11:53 am 11:53 Cloudy with Light Rain 51 10.6 37 2.8 59 59 N 6 9 29.79 1009 10 16 0.00 0.03
12:53 pm 12:53 Cloudy with Light Rain 50 10 38 3.3 63 63 N 6 9 29.80 1009 9 14 0.00 0.03
1:53 pm 13:53 Cloudy with Light Rain 49 9.4 39 3.9 69 69 NE 3 6 29.82 1010 10 16 0.01 0.25
2:53 pm 14:53 Cloudy with Light Rain 47 8.3 41 5 80 80 WNW 9 15 29.82 1010 10 16 0.04 1.02
3:53 pm 15:53 Cloudy 48 8.9 41 5 77 77 WNW 7 11 29.81 1010 10 16 0.01 0.25
4:53 pm 16:53 Cloudy with Light Rain 46 7.8 41 5 83 83 WNW 7 11 29.84 1011 9 14 0.02 0.51
5:53 pm 17:53 Cloudy with Rain 44 6.7 41 5 89 89 WNW 9 15 29.86 1011 4 6 0.09 2.29
6:53 pm 18:53 Cloudy with Rain 43 6.1 40 4.4 89 89 NW 12 19 29.87 1012 4 6 0.05 1.27
7:30 pm 19:30 Cloudy with Heavy Rain 43 6 39 4 87 87 NW 13 20 29.85 1011 2 3 0.00 0.00
7:39 pm 19:39 Cloudy with Rain 42 5.6 40 4.4 92 92 NW 12 19 29.85 1011 2 3 0.11 2.79
7:46 pm 19:46 Cloudy with Rain 43 6 39 4 87 87 NW 12 19 29.85 1011 2 3 0.00 0.00
7:53 pm 19:53 Cloudy with Rain 41 5 40 4.4 96 96 NW 10 17 29.86 1011 3 4 0.16 4.06
8:08 pm 20:08 Cloudy with Rain 41 5 39 4 93 93 NW 12 19 29.85 1011 3 5 0.00 0.00
8:25 pm 20:25 Cloudy with Light Rain 41 5 40 4.4 96 96 NW 10 17 29.85 1011 6 10 0.06 1.52
8:53 pm 20:53 Cloudy with Rain 41 5 39 3.9 93 93 NW 9 15 29.88 1012 5 8 0.11 2.79
9:14 pm 21:14 Cloudy with Light Rain 41 5 39 4 93 93 NW 9 15 29.85 1011 7 11 0.00 0.00
9:23 pm 21:23 Cloudy with Light Rain 41 5 39 3.9 93 93 NW 10 17 29.88 1012 8 13 0.04 1.02
9:53 pm 21:53 Cloudy with Light Rain 41 5 39 3.9 93 93 NW 9 15 29.88 1012 8 13 0.08 2.03
10:53 pm 22:53 Cloudy with Light Rain 41 5 39 3.9 93 93 W 6 9 29.88 1012 8 13 0.03 0.76
11:08 pm 23:08 Cloudy with Light Rain 41 5 39 4 93 93 WNW 8 13 29.88 1012 10 16 0.00 0.00
11:19 pm 23:19 Cloudy with Light Rain 41 5 39 3.9 93 93 WNW 6 9 29.88 1012 9 14 0.01 0.25
11:53 pm 23:53 Cloudy with Light Rain 41 5 39 3.9 93 93 NW 6 9 29.87 1012 7 11 0.04 1.02

Powered by AerisWeather